Hourly Data Report for October 20, 2013

All times are specified in Local Standard Time (LST). Add 1 hour to adjust for Daylight Saving Time where and when it is observed.

TORONTO INTL A
ONTARIO

43°40'36.000" N
79°37'50.000" W
173.40 m
6158731
71624
YYZ

Download Data

Hourly Data (October 2013)
Hourly Data Report for October 20, 2013
Temp Definition
°C
Dew Point Temp Definition
°C
Rel Hum Definition
%
Wind Dir Definition
10's deg

Wind Spd Definition
km/h
Visibility Definition
km
Stn Press Definition
kPa
Hmdx Definition


Wind Chill Definition


Weather Definition


TIME
00:00 Legend Double Dagger 5.2 3.2 87 26 22 24.1 98.75     LegendNANA
01:00 Legend Double Dagger 4.8 2.8 87 28 14 24.1 98.79     Clear
02:00 Legend Double Dagger 4.2 2.7 90 29 5 24.1 98.80     LegendNANA
03:00 Legend Double Dagger 3.5 2.0 90 24 9 24.1 98.81     LegendNANA
04:00 Legend Double Dagger 3.7 2.1 89 26 7 24.1 98.86     Mainly Clear
05:00 Legend Double Dagger 2.8 1.6 92 26 6 24.1 98.87     LegendNANA
06:00 Legend Double Dagger 3.1 2.1 93 24 10 24.1 98.92     LegendNANA
07:00 Legend Double Dagger 3.1 1.9 92 25 7 24.1 98.96     Clear
08:00 Legend Double Dagger 5.0 3.0 87 27 7 24.1 99.06     LegendNANA
09:00 Legend Double Dagger 7.0 4.0 81 24 9 24.1 99.10     LegendNANA
10:00 Legend Double Dagger 9.5 5.1 74 25 13 24.1 99.13     Clear
11:00 Legend Double Dagger 10.6 5.0 68 26 22 24.1 99.16     LegendNANA
12:00 Legend Double Dagger 12.3 5.5 63 25 17 24.1 99.11     LegendNANA
13:00 Legend Double Dagger 12.3 3.8 56 26 15 24.1 99.09     Mostly Cloudy
14:00 Legend Double Dagger 12.8 0.9 44 24 32 24.1 99.09     LegendNANA
15:00 Legend Double Dagger 12.7 1.1 45 25 35 24.1 99.13     LegendNANA
16:00 Legend Double Dagger 12.3 0.5 44 26 25 24.1 99.17     Mainly Clear
17:00 Legend Double Dagger 10.8 0.6 49 27 19 24.1 99.22     LegendNANA
18:00 Legend Double Dagger 9.3 1.0 56 23 9 24.1 99.28     LegendNANA
19:00 Legend Double Dagger 9.1 0.6 55 23 9 24.1 99.33     Mainly Clear
20:00 Legend Double Dagger 8.1 0.8 60 23 7 24.1 99.34     LegendNANA
21:00 Legend Double Dagger 8.6 1.1 59 20 5 24.1 99.32     LegendNANA
22:00 Legend Double Dagger 8.8 1.5 60 17 4 24.1 99.30     Mostly Cloudy
23:00 Legend Double Dagger 8.4 2.2 65 10 8 24.1 99.26     LegendNANA

Notes on Data Quality.

Legend

  • E = Estimated
  • M = Missing
  • NA = Not Available
  • ‡ = Partner data that is not subject to review by the National Climate Archives
Date modified: